Wind_Speed
38 38 39 40 41 42 43 43 44 45 46 47 47 48 48 48 49 50 51 51 52 53 53 52 52 53 53 54 54 54 55 55 55 54 55 55 55 55
39 39 40 42 43 43 43 44 44 45 46 46 46 48 48 48 49 49 50 50 50 50 50 49 49 50 51 51 51 51 51 51 50 49 49 49 49 50
39 40 41 42 42 42 43 43 44 44 45 45 46 46 47 46 47 47 48 48 48 48 48 48 48 49 48 48 48 48 47 47 47 46 46 46 46 46
39 39 40 40 41 41 41 41 42 42 42 43 43 43 44 44 44 44 45 45 45 45 45 46 46 45 44 44 44 43 43 42 42 42 42 43 43 43
38 38 38 38 38 38 38 39 39 39 40 40 40 40 40 40 41 41 41 41 41 41 41 41 40 40 41 40 39 38 38 38 38 38 38 39 40 41
36 36 35 35 35 36 37 37 36 37 37 36 36 36 37 37 37 37 37 37 38 37 37 36 36 36 36 35 35 35 34 34 34 35 35 36 37 37
32 33 33 34 34 34 35 35 35 34 33 33 33 33 33 33 33 34 34 34 34 33 33 32 32 31 30 30 30 30 31 31 31 31 31 32 33 33
31 31 32 32 32 33 33 33 33 31 30 31 31 31 31 31 32 32 31 30 30 29 29 28 27 27 27 26 26 26 27 27 27 27 27 28 28 29
28 29 30 30 30 29 30 29 29 29 29 29 29 28 28 29 28 28 27 25 25 25 24 24 23 23 23 24 24 24 24 24 24 25 25 26 26 26
25 25 25 25 25 25 25 25 26 25 25 25 25 24 24 23 23 22 22 22 22 21 21 21 21 21 21 21 21 22 22 22 22 22 23 23 24 24
23 22 22 22 22 22 22 22 22 21 21 21 20 20 20 19 19 18 18 18 18 18 18 18 18 19 19 19 20 20 20 20 20 21 21 21 22 21
20 20 20 20 20 20 20 20 19 19 18 18 17 16 16 15 15 15 15 14 15 15 15 15 16 16 17 17 17 17 18 18 18 19 20 21 21 20
18 18 18 18 18 18 18 17 17 16 15 14 14 13 13 13 13 12 12 12 12 12 12 13 14 15 15 15 16 16 17 17 18 20 20 21 21 20
16 16 16 16 16 16 16 15 14 13 12 12 11 11 11 11 10 10 10 11 11 11 11 12 13 13 14 14 15 16 16 17 19 20 20 21 22 21
15 15 15 15 15 14 13 12 12 11 11 10 10 10 9 9 9 9 9 10 10 10 10 11 12 13 14 14 15 16 17 18 19 20 21 21 22 22
12 12 12 12 12 12 11 11 11 10 9 9 8 8 7 7 7 8 8 9 9 10 10 11 11 12 13 14 15 16 17 18 19 20 21 22 22 22
11 11 11 11 11 11 10 10 9 8 8 7 6 6 6 6 6 7 7 8 9 9 10 11 11 12 13 15 16 16 17 18 19 20 21 22 23 23
11 11 11 10 10 10 9 8 8 7 6 6 5 5 5 5 6 6 7 7 8 9 10 11 12 13 14 15 16 16 17 18 19 20 21 22 23 23
10 10 10 9 9 8 8 7 6 6 5 5 5 4 4 5 5 6 6 7 8 9 10 11 12 13 14 15 16 17 18 19 19 20 21 22 22 23
9 10 9 8 8 7 7 6 5 4 4 4 4 4 4 4 5 6 6 7 8 9 10 11 12 13 14 15 16 17 18 19 20 21 21 22 22 23
9 9 9 8 7 7 6 5 4 4 4 4 4 4 4 4 5 6 7 8 9 10 11 12 13 14 15 15 17 17 18 19 20 21 21 22 23 23
9 8 8 8 7 6 6 5 4 4 4 4 4 4 5 5 6 7 8 9 10 11 12 12 13 14 15 16 17 18 19 20 20 21 22 22 23 23
9 9 8 7 7 6 5 5 5 5 5 5 5 6 6 7 8 8 9 10 11 12 13 13 14 15 16 17 18 18 19 20 21 21 22 23 23 23
Wind_Direction
282 282 281 281 282 282 282 281 282 282 283 284 284 284 285 285 285 285 285 285 285 286 286 286 287 286 285 285 284 284 283 283 283 282 281 280 278 276
283 283 282 282 282 282 282 282 282 283 283 284 285 286 286 286 286 285 285 285 286 287 287 287 288 288 287 287 287 285 285 285 285 285 283 281 280 277
283 284 284 284 283 284 284 283 284 284 284 285 286 286 286 286 286 286 286 287 287 288 289 289 289 289 290 289 289 288 288 287 287 286 285 283 281 279
284 285 286 286 286 286 286 285 285 285 286 286 287 286 286 286 287 287 288 289 289 290 290 291 291 291 291 291 290 290 289 289 289 288 286 285 283 280
286 286 287 287 287 288 288 288 287 288 288 288 288 288 287 288 289 289 290 291 292 292 293 293 292 293 293 292 292 292 292 292 292 291 289 287 285 283
287 287 288 288 289 289 289 289 289 289 290 289 289 289 289 290 290 291 292 294 295 295 295 296 296 296 296 296 295 295 295 295 295 295 293 292 290 287
288 288 289 290 290 290 291 291 290 290 290 291 291 291 291 292 293 294 295 296 297 297 299 300 301 301 301 301 301 301 300 300 301 300 299 297 296 293
290 291 291 291 292 292 293 292 291 290 290 291 292 292 292 294 295 297 298 298 298 299 300 302 303 305 306 307 307 307 307 307 307 306 306 304 303 301
293 293 293 292 293 294 294 293 292 292 292 292 293 294 296 298 299 300 301 302 303 303 304 305 307 309 311 312 312 313 314 314 314 313 313 312 310 309
296 296 295 295 296 297 297 297 297 296 296 296 297 298 301 304 304 304 305 306 308 309 309 311 312 314 316 316 318 319 321 322 322 321 321 320 317 315
298 298 298 299 301 302 302 302 302 302 302 304 305 306 307 308 310 311 312 314 316 316 317 319 320 321 323 324 325 326 328 330 331 331 331 331 330 327
300 300 301 302 303 304 305 306 307 308 309 310 310 311 313 314 316 318 320 322 324 325 326 328 329 330 331 333 336 338 340 342 343 343 343 343 341 340
304 304 306 307 308 309 309 310 312 313 314 315 315 316 319 322 325 327 330 332 333 335 338 340 341 342 343 346 347 349 350 350 352 352 352 353 352 351
308 309 310 313 315 315 315 315 315 316 318 319 320 322 326 328 332 336 339 342 345 348 349 349 351 353 355 356 357 357 358 359 359 359 360 1 1 1
312 314 316 317 320 322 322 322 322 322 322 324 325 327 330 333 338 344 347 351 355 358 360 2 4 6 6 6 6 6 5 5 5 6 6 7 8 8
318 320 321 323 326 328 328 327 327 327 327 327 329 333 335 340 348 355 359 4 9 12 15 15 13 12 13 14 14 14 13 12 12 13 14 15 15 15
326 327 328 328 328 328 328 329 330 332 335 336 339 344 349 357 6 10 12 15 19 22 23 22 20 19 19 19 19 19 18 18 19 19 20 20 21 21
331 330 330 330 330 331 331 332 335 340 345 350 353 358 5 11 15 16 18 24 30 33 31 29 28 25 24 24 24 24 23 23 23 23 23 23 24 25
333 333 333 333 334 335 337 339 343 349 356 1 3 9 18 24 25 25 29 34 38 38 36 34 32 30 29 28 29 29 28 28 27 27 27 27 27 28
339 339 340 341 342 344 347 351 356 360 4 9 14 23 32 35 37 38 42 45 46 46 44 40 36 34 33 33 33 32 31 31 30 29 28 29 28 28
348 349 350 351 353 355 359 3 8 14 19 25 35 47 50 49 50 52 55 56 55 52 48 44 41 40 39 38 37 35 34 32 31 30 29 29 29 28
360 1 2 3 3 5 10 16 24 31 37 48 60 68 67 65 66 68 67 63 60 57 53 50 48 45 42 40 38 37 35 34 32 31 30 30 29 28
14 14 14 15 17 21 27 34 42 49 60 70 77 78 76 76 79 78 74 69 66 62 58 54 50 46 43 41 39 37 35 33 32 31 30 29 28 27
Height
5772 5771 5770 5768 5766 5764 5762 5760 5759 5756 5754 5751 5749 5746 5743 5740 5736 5733 5730 5727 5724 5721 5717 5714 5710 5707 5703 5700 5696 5693 5689 5685 5682 5678 5675 5672 5670 5668
5762 5760 5759 5757 5755 5753 5751 5749 5746 5744 5742 5739 5736 5733 5730 5727 5724 5721 5717 5714 5710 5707 5704 5700 5697 5693 5689 5685 5681 5677 5674 5670 5667 5663 5660 5656 5653 5651
5751 5749 5747 5745 5743 5741 5739 5736 5734 5732 5729 5726 5724 5720 5717 5714 5711 5708 5705 5701 5698 5695 5691 5687 5684 5680 5676 5672 5668 5663 5660 5656 5652 5649 5645 5642 5639 5637
5740 5738 5736 5734 5732 5729 5727 5724 5722 5720 5717 5714 5711 5708 5705 5702 5699 5696 5692 5689 5686 5683 5679 5675 5672 5668 5664 5659 5655 5651 5648 5644 5640 5636 5633 5630 5626 5623
5729 5727 5725 5723 5721 5718 5716 5713 5710 5708 5705 5703 5699 5696 5693 5691 5688 5685 5681 5678 5675 5671 5668 5664 5660 5656 5652 5648 5644 5640 5636 5633 5629 5625 5621 5617 5614 5611
5719 5717 5715 5712 5710 5708 5705 5702 5700 5697 5694 5692 5689 5686 5684 5681 5678 5674 5671 5668 5665 5661 5658 5654 5650 5646 5642 5638 5635 5630 5627 5623 5619 5615 5611 5607 5603 5600
5709 5707 5705 5703 5700 5698 5695 5693 5690 5687 5685 5682 5680 5677 5674 5671 5668 5665 5662 5659 5655 5652 5648 5645 5642 5638 5634 5630 5626 5622 5618 5614 5610 5606 5602 5598 5594 5590
5700 5698 5696 5693 5691 5688 5686 5683 5681 5678 5676 5674 5671 5668 5665 5662 5660 5657 5654 5651 5648 5645 5641 5638 5635 5631 5627 5623 5619 5615 5611 5607 5603 5599 5594 5590 5585 5581
5692 5690 5687 5685 5682 5679 5677 5674 5672 5670 5668 5665 5663 5660 5658 5655 5652 5649 5646 5644 5641 5638 5635 5632 5629 5625 5622 5618 5614 5610 5606 5602 5597 5593 5588 5583 5579 5574
5684 5682 5680 5678 5675 5672 5670 5667 5665 5662 5660 5658 5656 5653 5651 5648 5646 5643 5641 5638 5635 5633 5630 5627 5624 5621 5617 5613 5610 5606 5602 5597 5593 5588 5584 5579 5574 5569
5678 5676 5674 5671 5669 5666 5664 5661 5659 5656 5654 5652 5650 5648 5645 5643 5641 5639 5636 5634 5631 5629 5626 5623 5620 5617 5613 5610 5606 5602 5598 5594 5589 5585 5580 5575 5570 5565
5672 5670 5668 5666 5663 5661 5658 5656 5654 5651 5649 5647 5645 5643 5641 5640 5637 5635 5633 5631 5628 5626 5623 5620 5617 5614 5611 5607 5604 5600 5596 5591 5587 5582 5577 5572 5567 5562
5667 5665 5663 5660 5658 5656 5653 5651 5649 5647 5645 5643 5642 5640 5639 5637 5635 5633 5630 5628 5626 5623 5621 5618 5615 5612 5609 5605 5602 5598 5594 5590 5585 5581 5576 5571 5565 5560
5662 5660 5658 5656 5654 5651 5649 5647 5646 5644 5642 5641 5639 5638 5636 5634 5633 5631 5629 5626 5624 5622 5619 5617 5614 5611 5608 5604 5601 5598 5594 5589 5585 5580 5575 5570 5565 5560
5658 5656 5654 5652 5650 5648 5646 5644 5643 5641 5640 5638 5637 5636 5634 5633 5631 5629 5627 5625 5623 5621 5618 5616 5613 5611 5608 5605 5601 5597 5594 5589 5585 5580 5576 5571 5565 5560
5655 5653 5651 5649 5647 5646 5644 5642 5641 5639 5638 5636 5635 5634 5633 5631 5630 5628 5627 5625 5623 5621 5618 5616 5613 5611 5608 5605 5602 5598 5594 5590 5586 5581 5577 5572 5567 5561
5652 5651 5649 5647 5645 5644 5642 5641 5639 5638 5636 5635 5634 5633 5632 5631 5629 5628 5627 5625 5623 5621 5619 5616 5614 5612 5609 5606 5602 5599 5595 5591 5587 5583 5578 5574 5569 5564
5650 5649 5647 5645 5644 5642 5640 5639 5638 5637 5635 5634 5633 5632 5631 5630 5629 5628 5627 5625 5623 5621 5619 5617 5615 5613 5610 5607 5604 5600 5597 5593 5589 5585 5580 5576 5571 5567
5649 5647 5645 5644 5642 5641 5639 5638 5637 5636 5635 5634 5633 5632 5631 5630 5629 5628 5627 5625 5624 5622 5620 5618 5616 5614 5611 5609 5606 5602 5599 5595 5591 5587 5583 5578 5574 5569
5648 5646 5644 5642 5641 5639 5638 5637 5636 5635 5634 5633 5632 5632 5631 5630 5630 5629 5627 5626 5625 5623 5621 5620 5618 5615 5613 5610 5607 5604 5600 5597 5593 5589 5585 5581 5577 5572
5646 5645 5643 5641 5640 5639 5637 5636 5635 5634 5634 5633 5632 5632 5631 5631 5630 5629 5628 5627 5626 5625 5623 5621 5619 5617 5615 5612 5609 5606 5603 5599 5596 5592 5588 5584 5579 5575
5646 5644 5642 5641 5639 5638 5637 5636 5635 5634 5634 5633 5633 5632 5632 5631 5631 5630 5630 5629 5628 5626 5625 5623 5621 5619 5617 5614 5611 5608 5605 5602 5598 5594 5590 5586 5583 5578
5646 5644 5643 5641 5640 5638 5637 5636 5636 5635 5634 5634 5633 5633 5633 5633 5632 5632 5631 5631 5630 5628 5627 5625 5623 5621 5619 5616 5614 5611 5608 5604 5601 5597 5593 5589 5585 5581